GFSCGP_prec_precacc_276.txt.gz
Total_Precipitation_Accumulation
0.00 0.00 0.00 0.05 0.20 0.50 0.28 0.21 0.93 2.43 2.76 2.29 2.52 1.37 1.06 1.97 1.94 1.65 0.87 0.70 0.71 0.60 0.45 0.24 0.42 0.41 0.70 0.69 0.79 0.44 0.34 0.47 0.52 0.63 0.70 0.73 0.73 1.03 1.20 1.23 0.87 0.61 0.87 1.81
0.00 0.00 0.00 0.03 0.12 0.07 0.08 0.10 0.43 2.12 3.03 2.73 2.75 1.96 1.40 1.79 1.93 1.40 1.06 0.72 0.72 1.07 0.53 0.13 0.25 0.18 0.33 0.32 0.25 0.34 0.60 0.63 0.44 0.65 0.79 0.69 1.09 1.67 1.38 1.15 0.68 0.59 0.72 1.25
0.00 0.00 0.00 0.02 0.06 0.01 0.01 0.03 0.16 1.15 1.54 2.01 2.31 2.69 2.27 2.04 2.21 1.73 1.21 0.80 0.62 0.75 0.64 0.23 0.11 0.13 0.14 0.17 0.22 0.31 0.49 0.98 0.78 0.71 1.00 1.38 2.34 3.65 2.62 1.19 0.98 0.51 0.91 1.04
0.00 0.00 0.00 0.00 0.01 0.01 0.04 0.04 0.12 0.68 1.11 2.74 1.51 2.09 1.91 1.44 2.08 2.89 1.45 1.43 0.76 0.80 0.52 0.46 0.14 0.12 0.07 0.10 0.39 0.40 0.55 0.86 0.97 0.99 0.92 1.88 3.38 3.17 1.54 0.81 0.47 0.61 1.08 1.49
0.00 0.00 0.00 0.00 0.00 0.00 0.02 0.05 0.09 0.47 0.39 0.75 0.86 1.37 1.59 1.17 1.97 2.65 1.68 0.91 0.87 0.94 0.53 0.71 0.42 0.41 0.58 0.79 0.97 0.93 0.72 1.00 1.33 1.24 1.91 2.90 2.31 2.01 1.20 1.01 1.63 1.50 1.59 1.07
0.00 0.00 0.00 0.00 0.00 0.00 0.01 0.04 0.09 0.14 0.35 0.33 0.35 0.88 0.87 0.81 1.23 1.93 0.87 0.66 0.63 0.74 0.45 0.47 0.46 0.65 1.41 1.93 1.83 1.77 1.38 1.71 1.69 1.78 1.66 2.31 2.41 2.29 2.55 1.99 2.60 1.50 1.49 1.68
0.00 0.00 0.00 0.00 0.00 0.03 0.00 0.02 0.07 0.17 0.27 0.32 0.10 0.44 0.49 0.39 0.64 1.72 1.44 1.00 0.81 0.77 0.38 0.33 0.45 0.94 1.30 1.42 0.98 1.50 1.35 1.42 2.19 2.23 1.42 1.66 2.32 2.64 3.01 1.92 1.60 1.61 1.31 1.22
0.00 0.00 0.00 0.00 0.00 0.01 0.00 0.00 0.01 0.06 0.10 0.08 0.15 0.58 0.44 0.27 0.26 0.59 1.33 1.23 1.19 1.17 0.85 0.35 0.27 0.92 0.98 0.71 0.69 0.62 0.69 0.91 1.36 1.15 1.06 1.32 1.46 1.37 1.45 1.38 1.13 0.92 1.37 1.83
0.00 0.00 0.00 0.00 0.00 0.00 0.00 0.01 0.03 0.03 0.02 0.02 0.24 0.54 0.65 0.40 0.47 0.29 0.56 1.07 1.49 1.73 1.66 0.93 0.72 0.56 0.60 0.84 0.62 0.42 0.34 0.30 0.53 0.54 1.13 1.15 1.12 1.07 1.10 1.32 1.15 0.94 0.95 1.47
0.00 0.00 0.00 0.00 0.00 0.00 0.01 0.03 0.02 0.02 0.03 0.03 0.35 0.70 1.49 1.56 1.14 0.51 0.38 0.59 0.75 1.24 1.92 1.21 1.47 1.43 0.87 0.96 0.73 0.73 0.70 0.45 0.46 0.54 0.71 0.91 1.22 1.53 1.86 1.51 1.28 1.07 1.05 1.34
0.01 0.00 0.01 0.00 0.00 0.01 0.01 0.01 0.00 0.02 0.05 0.06 0.42 1.25 0.87 0.89 0.60 0.79 0.88 0.70 0.40 0.62 1.17 1.25 1.40 1.90 1.22 2.06 2.30 1.99 1.47 0.73 0.52 0.65 0.69 1.01 0.95 0.84 0.75 1.06 1.15 1.09 1.03 0.92
0.00 0.00 0.01 0.04 0.01 0.02 0.01 0.01 0.01 0.02 0.16 0.05 0.09 0.79 0.46 0.74 1.09 0.93 0.56 0.57 0.45 0.37 0.67 1.61 1.81 1.83 1.75 2.78 3.52 3.99 3.59 2.38 1.30 1.06 0.73 0.77 0.76 0.82 0.72 0.69 0.84 0.85 1.02 0.93
0.03 0.03 0.01 0.06 0.05 0.03 0.03 0.02 0.04 0.03 0.06 0.08 0.20 0.38 0.31 0.24 0.46 0.58 0.59 0.54 0.43 0.60 0.47 0.96 1.83 2.21 1.88 2.52 4.69 5.22 4.41 3.71 2.50 1.60 1.06 1.04 1.14 0.94 0.67 0.59 0.89 1.04 1.12 1.16
0.12 0.04 0.02 0.21 0.15 0.07 0.03 0.03 0.06 0.09 0.12 0.07 0.07 0.19 0.27 0.26 0.42 0.39 1.00 1.11 0.82 0.81 0.70 0.99 1.45 2.05 2.36 2.49 3.64 4.59 5.43 4.35 4.14 2.81 2.15 1.90 1.80 1.60 1.36 1.21 1.18 1.08 1.41 1.27
0.10 0.02 0.02 0.09 0.06 0.15 0.18 0.04 0.13 0.18 0.22 0.10 0.14 0.19 0.25 0.38 0.47 0.43 0.84 1.43 1.48 1.22 0.72 1.12 1.56 2.44 2.70 2.57 2.67 2.88 3.99 4.71 5.39 5.30 5.33 4.22 3.84 3.80 3.41 2.76 2.35 2.48 2.19 2.00
0.10 0.03 0.02 0.05 0.05 0.09 0.23 0.05 0.03 0.08 0.07 0.07 0.03 0.09 0.33 0.39 0.80 1.16 1.56 2.19 2.02 2.21 1.27 1.61 2.91 3.06 2.65 2.32 2.09 2.40 2.69 3.35 3.66 3.56 3.92 5.25 6.43 5.13 5.25 4.80 3.88 3.56 3.11 2.95
0.16 0.14 0.11 0.09 0.18 0.10 0.08 0.12 0.16 0.25 0.16 0.19 0.19 0.15 0.46 0.39 0.88 0.69 0.54 0.83 1.05 1.68 3.06 3.88 2.90 1.58 1.58 2.24 2.44 2.58 3.43 3.75 3.57 3.13 3.15 3.50 4.32 5.15 4.96 5.05 4.43 4.40 3.99 3.42
0.07 0.13 0.22 0.14 0.29 0.30 0.06 0.04 0.12 0.14 0.29 0.51 0.74 0.75 0.56 1.00 0.77 0.57 0.39 0.45 0.78 1.32 2.64 4.73 3.27 1.69 1.74 2.04 2.64 3.36 3.60 3.26 3.33 3.56 3.36 3.39 3.37 3.63 3.74 3.89 4.51 4.58 4.82 4.63
0.04 0.13 0.21 0.15 0.28 0.33 0.18 0.11 0.03 0.09 0.30 0.58 0.57 0.38 0.69 1.00 0.70 0.44 0.30 0.34 0.79 1.20 1.80 1.66 1.78 1.81 3.20 3.40 3.78 2.95 3.31 4.25 3.47 2.98 3.25 3.63 3.94 3.59 3.29 3.29 3.26 3.31 3.71 4.06
0.13 0.18 0.34 0.32 0.32 0.44 0.36 0.15 0.04 0.03 0.53 0.37 0.79 0.72 0.59 1.00 1.24 1.06 0.60 0.72 1.17 1.31 1.12 0.90 0.64 0.59 0.79 1.21 2.08 2.48 2.57 2.66 3.24 3.63 3.50 3.22 3.36 3.33 3.75 4.42 3.95 3.59 3.28 3.09
0.42 0.51 0.48 0.41 0.40 0.37 0.42 0.21 0.10 0.28 0.58 1.24 1.39 1.11 0.72 1.08 1.66 1.66 1.81 1.38 0.96 1.00 0.99 0.72 0.58 0.48 0.51 0.85 1.09 0.97 1.27 1.40 1.43 1.53 2.76 2.65 2.12 2.64 2.99 3.51 3.74 3.58 3.65 3.50
0.99 0.92 0.91 0.62 0.58 0.59 0.44 0.61 0.54 0.50 0.43 0.76 1.11 1.11 0.97 0.90 1.34 1.69 1.49 1.49 1.61 2.01 1.13 0.95 0.90 0.85 0.67 0.64 0.71 0.64 0.60 0.64 0.77 1.00 0.99 1.86 1.92 1.81 2.07 3.51 4.58 4.70 4.93 6.14
1.11 1.03 0.94 0.84 0.86 0.61 0.49 0.84 0.74 0.37 0.48 1.11 1.86 1.47 0.87 0.78 0.84 1.06 1.18 1.46 1.13 0.80 0.74 0.89 1.53 0.73 0.70 0.53 0.42 0.59 0.65 0.54 0.58 0.69 1.04 1.30 1.87 2.03 2.71 3.04 3.52 4.34 4.90 6.11
1.09 0.80 0.65 0.69 0.78 0.70 0.49 0.86 1.00 0.82 0.56 0.28 0.44 0.62 0.73 0.77 0.83 0.81 0.85 1.06 1.00 0.88 0.60 0.51 0.78 0.75 0.74 0.94 0.83 0.79 0.90 1.11 1.40 1.46 1.16 1.09 1.32 1.69 1.65 1.97 2.62 2.78 2.68 3.58
1.97 1.26 0.84 0.62 0.72 0.74 0.58 0.70 1.03 0.88 0.50 0.25 0.27 0.36 0.32 0.31 0.32 0.40 0.56 0.68 0.70 0.89 0.99 0.93 1.29 1.31 1.05 1.20 1.29 1.30 1.37 1.33 1.20 1.00 1.08 1.18 1.34 1.48 2.50 2.81 3.01 2.72 2.83 3.18
2.09 2.17 1.42 1.22 1.31 1.52 1.00 0.76 0.79 0.98 0.89 0.65 0.40 0.32 0.29 0.28 0.16 0.21 0.36 0.84 1.44 1.42 1.61 1.32 1.34 1.16 1.22 1.15 1.33 1.44 1.77 1.76 1.73 1.67 1.71 1.84 2.16 2.24 2.55 2.56 2.57 3.04 3.88 4.08

GFSCGP_prec_precacc_279.txt.gz
Total_Precipitation_Accumulation
0.00 0.00 0.00 0.05 0.20 0.50 0.28 0.21 0.93 2.43 2.76 2.29 2.52 1.37 1.06 1.97 1.94 1.65 0.87 0.70 0.71 0.60 0.45 0.24 0.42 0.41 0.71 0.71 0.79 0.45 0.34 0.47 0.52 0.63 0.70 0.73 0.73 1.06 1.28 1.27 0.88 0.62 0.87 1.81
0.00 0.00 0.00 0.03 0.12 0.07 0.08 0.10 0.43 2.12 3.03 2.73 2.75 1.96 1.40 1.79 1.93 1.40 1.06 0.73 0.72 1.07 0.53 0.13 0.25 0.18 0.33 0.33 0.27 0.35 0.60 0.63 0.44 0.65 0.80 0.70 1.09 1.73 1.43 1.17 0.70 0.61 0.72 1.25
0.00 0.00 0.00 0.02 0.06 0.01 0.01 0.03 0.16 1.15 1.54 2.01 2.31 2.69 2.27 2.04 2.21 1.73 1.21 0.80 0.62 0.75 0.64 0.23 0.11 0.13 0.14 0.17 0.24 0.33 0.50 0.99 0.78 0.71 1.03 1.40 2.48 3.78 2.67 1.20 0.99 0.56 0.93 1.05
0.00 0.00 0.00 0.00 0.01 0.01 0.04 0.04 0.12 0.68 1.11 2.74 1.51 2.09 1.91 1.44 2.08 2.89 1.45 1.43 0.76 0.80 0.52 0.46 0.14 0.12 0.07 0.11 0.41 0.42 0.56 0.87 0.97 0.99 0.92 1.90 3.49 3.21 1.55 0.83 0.48 0.64 1.10 1.52
0.00 0.00 0.00 0.00 0.00 0.00 0.02 0.05 0.09 0.47 0.39 0.75 0.86 1.37 1.59 1.17 1.97 2.65 1.68 0.91 0.87 0.94 0.54 0.71 0.42 0.41 0.58 0.80 0.98 0.95 0.73 1.00 1.33 1.24 1.92 2.92 2.33 2.03 1.21 1.03 1.63 1.51 1.61 1.09
0.00 0.00 0.00 0.00 0.00 0.00 0.01 0.04 0.09 0.14 0.35 0.33 0.35 0.88 0.87 0.81 1.23 1.93 0.87 0.66 0.64 0.75 0.45 0.47 0.46 0.66 1.41 1.94 1.84 1.79 1.38 1.71 1.69 1.78 1.66 2.31 2.41 2.29 2.55 1.99 2.60 1.50 1.49 1.68
0.00 0.00 0.00 0.00 0.00 0.03 0.00 0.02 0.07 0.17 0.27 0.32 0.10 0.44 0.49 0.39 0.64 1.72 1.44 1.00 0.81 0.78 0.38 0.33 0.45 0.94 1.30 1.42 0.98 1.51 1.35 1.42 2.19 2.24 1.42 1.66 2.32 2.64 3.01 1.93 1.60 1.61 1.31 1.22
0.00 0.00 0.00 0.00 0.00 0.01 0.00 0.00 0.01 0.06 0.10 0.08 0.15 0.58 0.44 0.27 0.26 0.59 1.33 1.23 1.19 1.17 0.85 0.35 0.27 0.92 0.98 0.71 0.69 0.62 0.69 0.91 1.36 1.15 1.06 1.32 1.46 1.37 1.45 1.38 1.13 0.92 1.37 1.83
0.00 0.00 0.00 0.00 0.00 0.00 0.00 0.01 0.03 0.03 0.02 0.02 0.24 0.54 0.65 0.40 0.47 0.29 0.56 1.07 1.49 1.73 1.66 0.93 0.72 0.56 0.60 0.84 0.62 0.42 0.34 0.30 0.53 0.54 1.13 1.15 1.12 1.08 1.11 1.32 1.15 0.94 0.95 1.47
0.00 0.00 0.00 0.00 0.00 0.00 0.01 0.03 0.02 0.02 0.03 0.03 0.35 0.70 1.49 1.56 1.14 0.51 0.38 0.59 0.75 1.24 1.92 1.21 1.47 1.43 0.87 0.96 0.73 0.73 0.70 0.45 0.46 0.54 0.71 0.93 1.27 1.56 1.86 1.51 1.28 1.07 1.05 1.34
0.01 0.00 0.01 0.00 0.00 0.01 0.01 0.01 0.00 0.02 0.05 0.06 0.42 1.25 0.87 0.89 0.60 0.79 0.88 0.70 0.40 0.63 1.17 1.25 1.40 1.90 1.22 2.06 2.30 1.99 1.47 0.73 0.52 0.65 0.69 1.03 0.97 0.84 0.75 1.06 1.15 1.09 1.03 0.92
0.00 0.00 0.01 0.04 0.01 0.02 0.01 0.01 0.01 0.02 0.16 0.05 0.09 0.79 0.46 0.74 1.09 0.93 0.56 0.57 0.45 0.38 0.73 1.68 1.81 1.83 1.75 2.78 3.52 3.99 3.59 2.38 1.30 1.06 0.73 0.77 0.76 0.82 0.72 0.69 0.84 0.85 1.02 0.93
0.03 0.03 0.01 0.06 0.05 0.03 0.03 0.02 0.04 0.03 0.06 0.08 0.20 0.38 0.31 0.24 0.46 0.58 0.59 0.54 0.43 0.60 0.48 1.00 1.83 2.21 1.88 2.52 4.69 5.22 4.41 3.71 2.50 1.60 1.06 1.04 1.14 0.94 0.67 0.59 0.89 1.05 1.12 1.16
0.12 0.04 0.02 0.21 0.15 0.07 0.03 0.03 0.06 0.09 0.12 0.07 0.07 0.19 0.27 0.26 0.42 0.39 1.00 1.11 0.82 0.81 0.70 0.99 1.45 2.05 2.36 2.49 3.64 4.59 5.43 4.35 4.14 2.81 2.15 1.90 1.80 1.60 1.36 1.21 1.18 1.09 1.45 1.28
0.10 0.02 0.02 0.09 0.06 0.15 0.18 0.04 0.13 0.18 0.22 0.10 0.14 0.19 0.25 0.38 0.47 0.43 0.84 1.43 1.48 1.22 0.72 1.12 1.56 2.44 2.70 2.57 2.67 2.88 4.03 4.80 5.56 5.36 5.33 4.22 3.84 3.80 3.41 2.76 2.36 2.50 2.21 2.00
0.10 0.03 0.02 0.05 0.05 0.09 0.23 0.05 0.03 0.08 0.07 0.07 0.03 0.09 0.33 0.39 0.80 1.16 1.56 2.19 2.02 2.21 1.27 1.61 2.91 3.06 2.65 2.32 2.28 3.03 3.45 4.31 4.45 3.88 3.93 5.25 6.43 5.13 5.25 4.80 3.90 3.60 3.13 2.95
0.16 0.14 0.11 0.09 0.18 0.10 0.08 0.12 0.16 0.25 0.16 0.19 0.19 0.15 0.46 0.39 0.88 0.69 0.54 0.83 1.05 1.68 3.06 3.88 2.90 1.58 1.59 2.45 3.14 3.45 4.27 4.45 4.07 3.32 3.20 3.60 4.47 5.17 4.97 5.06 4.46 4.42 3.99 3.42
0.07 0.13 0.22 0.14 0.29 0.30 0.06 0.04 0.12 0.14 0.29 0.51 0.74 0.75 0.56 1.00 0.77 0.57 0.39 0.45 0.78 1.32 2.64 4.73 3.28 1.70 1.76 2.22 2.94 3.85 4.03 3.49 3.45 3.83 3.66 3.62 3.53 3.71 3.78 3.89 4.51 4.58 4.82 4.63
0.04 0.13 0.21 0.15 0.28 0.33 0.18 0.11 0.03 0.09 0.30 0.58 0.57 0.38 0.69 1.00 0.70 0.44 0.30 0.34 0.79 1.20 1.80 1.67 1.79 1.82 3.30 3.59 3.97 3.07 3.34 4.26 3.58 3.18 3.35 3.72 4.02 3.64 3.29 3.29 3.26 3.31 3.71 4.06
0.13 0.18 0.34 0.32 0.32 0.44 0.36 0.15 0.04 0.03 0.53 0.37 0.79 0.72 0.59 1.00 1.24 1.06 0.60 0.72 1.17 1.31 1.12 0.91 0.65 0.64 1.02 1.43 2.17 2.50 2.57 2.68 3.36 3.76 3.54 3.26 3.38 3.33 3.75 4.42 3.95 3.59 3.28 3.09
0.42 0.51 0.48 0.41 0.40 0.37 0.42 0.21 0.10 0.28 0.58 1.24 1.39 1.11 0.72 1.08 1.66 1.66 1.81 1.38 0.96 1.00 0.99 0.74 0.62 0.66 0.84 1.02 1.15 0.99 1.28 1.46 1.51 1.54 2.77 2.65 2.12 2.64 2.99 3.51 3.74 3.58 3.65 3.50
0.99 0.92 0.91 0.62 0.58 0.59 0.44 0.61 0.54 0.50 0.43 0.76 1.11 1.11 0.97 0.91 1.35 1.70 1.50 1.49 1.61 2.02 1.18 1.02 1.04 1.04 0.85 0.77 0.77 0.65 0.69 0.70 0.78 1.00 0.99 1.86 1.92 1.81 2.07 3.51 4.58 4.70 4.93 6.14
1.11 1.03 0.94 0.84 0.86 0.61 0.49 0.84 0.74 0.37 0.48 1.11 1.86 1.48 0.93 0.81 0.84 1.06 1.19 1.48 1.17 0.84 0.82 0.97 1.64 0.78 0.75 0.55 0.45 0.60 0.65 0.54 0.58 0.69 1.04 1.30 1.87 2.03 2.71 3.04 3.52 4.34 4.90 6.11
1.09 0.80 0.65 0.69 0.79 0.71 0.49 0.86 1.00 0.82 0.56 0.28 0.44 0.63 0.76 0.82 0.88 0.82 0.85 1.09 1.06 0.93 0.66 0.57 0.82 0.77 0.75 0.94 0.83 0.79 0.90 1.11 1.40 1.46 1.16 1.09 1.32 1.69 1.65 1.97 2.62 2.78 2.68 3.58
1.97 1.26 0.84 0.62 0.72 0.75 0.59 0.70 1.03 0.88 0.50 0.25 0.27 0.37 0.32 0.31 0.32 0.40 0.56 0.71 0.77 0.93 1.02 0.94 1.29 1.31 1.05 1.20 1.29 1.30 1.37 1.33 1.20 1.00 1.08 1.18 1.34 1.48 2.50 2.81 3.01 2.72 2.83 3.18
2.09 2.17 1.42 1.22 1.31 1.53 1.01 0.77 0.79 0.98 0.90 0.65 0.40 0.32 0.29 0.28 0.16 0.21 0.37 0.85 1.45 1.43 1.62 1.32 1.34 1.16 1.22 1.15 1.33 1.44 1.77 1.76 1.73 1.67 1.71 1.84 2.16 2.24 2.55 2.56 2.57 3.04 3.88 4.08

GFSCGP_prec_precacc_285.txt.gz
Total_Precipitation_Accumulation
0.00 0.00 0.00 0.05 0.20 0.50 0.28 0.21 0.93 2.43 2.76 2.29 2.52 1.37 1.06 1.97 1.94 1.65 0.87 0.70 0.71 0.60 0.45 0.24 0.42 0.41 0.71 0.71 0.80 0.45 0.39 0.48 0.52 0.63 0.70 0.74 0.81 1.11 1.29 1.29 0.98 0.68 0.89 1.81
0.00 0.00 0.00 0.03 0.12 0.07 0.08 0.10 0.43 2.12 3.03 2.73 2.75 1.96 1.40 1.79 1.93 1.40 1.06 0.73 0.72 1.07 0.53 0.13 0.25 0.18 0.33 0.33 0.27 0.35 0.61 0.63 0.44 0.65 0.80 0.73 1.12 1.88 1.53 1.34 0.82 0.64 0.72 1.27
0.00 0.00 0.00 0.02 0.06 0.01 0.01 0.03 0.16 1.15 1.54 2.01 2.31 2.69 2.27 2.04 2.21 1.73 1.21 0.80 0.62 0.75 0.64 0.23 0.11 0.13 0.14 0.17 0.24 0.33 0.50 0.99 0.78 0.71 1.04 1.45 2.63 3.97 2.77 1.26 1.03 0.59 0.94 1.12
0.00 0.00 0.00 0.00 0.01 0.01 0.04 0.04 0.12 0.68 1.11 2.74 1.51 2.09 1.91 1.44 2.08 2.89 1.45 1.43 0.76 0.80 0.52 0.46 0.14 0.12 0.07 0.11 0.41 0.42 0.56 0.87 0.97 0.99 0.95 2.02 3.63 3.36 1.66 0.84 0.49 0.67 1.11 1.56
0.00 0.00 0.00 0.00 0.00 0.00 0.02 0.05 0.09 0.47 0.39 0.75 0.86 1.37 1.59 1.17 1.97 2.65 1.68 0.91 0.87 0.94 0.54 0.71 0.42 0.42 0.59 0.80 0.98 0.95 0.73 1.00 1.33 1.24 1.95 2.98 2.42 2.11 1.23 1.03 1.64 1.52 1.62 1.09
0.00 0.00 0.00 0.00 0.00 0.00 0.01 0.04 0.09 0.14 0.35 0.33 0.35 0.88 0.87 0.81 1.23 1.93 0.87 0.66 0.64 0.75 0.46 0.47 0.46 0.66 1.44 1.94 1.84 1.79 1.38 1.71 1.69 1.78 1.66 2.31 2.45 2.35 2.60 2.00 2.61 1.50 1.49 1.68
0.00 0.00 0.00 0.00 0.00 0.03 0.00 0.02 0.07 0.17 0.27 0.32 0.10 0.44 0.49 0.39 0.64 1.72 1.44 1.00 0.81 0.78 0.38 0.33 0.45 0.94 1.30 1.42 0.98 1.51 1.35 1.42 2.19 2.24 1.42 1.66 2.33 2.67 3.03 1.93 1.61 1.61 1.31 1.22
0.00 0.00 0.00 0.00 0.00 0.01 0.00 0.00 0.01 0.06 0.10 0.08 0.15 0.58 0.44 0.27 0.26 0.59 1.33 1.23 1.19 1.17 0.85 0.35 0.27 0.92 0.98 0.71 0.69 0.62 0.69 0.93 1.36 1.16 1.07 1.36 1.51 1.39 1.47 1.40 1.14 0.92 1.37 1.83
0.00 0.00 0.00 0.00 0.00 0.00 0.00 0.01 0.03 0.03 0.02 0.02 0.24 0.54 0.65 0.40 0.47 0.29 0.56 1.07 1.49 1.73 1.66 0.93 0.72 0.56 0.60 0.84 0.62 0.42 0.35 0.32 0.53 0.56 1.18 1.20 1.14 1.09 1.13 1.34 1.16 0.94 0.95 1.47
0.00 0.00 0.00 0.00 0.00 0.00 0.01 0.03 0.02 0.02 0.03 0.03 0.35 0.70 1.49 1.56 1.14 0.51 0.38 0.59 0.75 1.24 1.92 1.21 1.47 1.43 0.87 0.96 0.73 0.73 0.70 0.46 0.46 0.55 0.75 0.96 1.28 1.56 1.86 1.51 1.28 1.07 1.05 1.34
0.01 0.00 0.01 0.00 0.00 0.01 0.01 0.01 0.00 0.02 0.05 0.06 0.42 1.25 0.87 0.89 0.60 0.79 0.88 0.70 0.40 0.63 1.17 1.25 1.40 1.90 1.22 2.06 2.30 1.99 1.47 0.73 0.52 0.67 0.71 1.05 1.02 0.87 0.77 1.07 1.15 1.09 1.03 0.92
0.00 0.00 0.01 0.04 0.01 0.02 0.01 0.01 0.01 0.02 0.16 0.05 0.09 0.79 0.46 0.74 1.09 0.93 0.56 0.57 0.45 0.38 0.73 1.68 1.81 1.83 1.75 2.78 3.52 3.99 3.59 2.38 1.30 1.08 0.82 0.91 0.85 0.84 0.74 0.69 0.84 0.85 1.03 0.94
0.03 0.03 0.01 0.06 0.05 0.03 0.03 0.02 0.04 0.03 0.06 0.08 0.20 0.38 0.31 0.24 0.46 0.58 0.59 0.54 0.43 0.60 0.48 1.00 1.83 2.21 1.88 2.52 4.69 5.23 4.53 4.03 2.89 1.97 1.34 1.25 1.25 0.96 0.67 0.59 0.89 1.08 1.16 1.17
0.12 0.04 0.02 0.21 0.15 0.07 0.03 0.03 0.06 0.09 0.12 0.07 0.07 0.19 0.27 0.26 0.42 0.39 1.00 1.11 0.82 0.81 0.70 0.99 1.45 2.05 2.36 2.49 3.64 4.61 5.74 4.86 4.70 3.45 2.81 2.45 2.02 1.62 1.36 1.21 1.20 1.13 1.50 1.35
0.10 0.02 0.02 0.09 0.06 0.15 0.18 0.04 0.13 0.18 0.22 0.10 0.14 0.19 0.25 0.38 0.47 0.43 0.84 1.43 1.48 1.22 0.72 1.12 1.56 2.44 2.70 2.57 2.73 3.35 5.15 6.36 7.37 6.99 6.59 4.98 4.01 3.81 3.41 2.77 2.39 2.57 2.30 2.03
0.10 0.03 0.02 0.05 0.05 0.09 0.23 0.05 0.03 0.08 0.07 0.07 0.03 0.09 0.33 0.39 0.80 1.16 1.56 2.19 2.02 2.21 1.27 1.61 2.91 3.06 2.65 2.32 2.57 3.92 5.16 7.38 6.95 6.69 5.33 5.84 6.64 5.21 5.30 4.90 3.99 3.65 3.14 2.95
0.16 0.14 0.11 0.09 0.18 0.10 0.08 0.12 0.16 0.25 0.16 0.19 0.19 0.15 0.46 0.39 0.88 0.69 0.54 0.83 1.05 1.68 3.06 3.88 2.90 1.58 1.59 2.46 3.31 3.94 5.19 5.06 4.31 3.59 3.33 3.66 4.54 5.28 5.09 5.21 4.52 4.43 3.99 3.42
0.07 0.13 0.22 0.14 0.29 0.30 0.06 0.04 0.12 0.14 0.29 0.51 0.74 0.75 0.56 1.00 0.77 0.57 0.39 0.45 0.78 1.32 2.64 4.73 3.28 1.70 1.76 2.23 3.15 4.48 4.48 3.61 3.53 3.91 3.68 3.67 3.64 3.82 3.96 4.04 4.57 4.58 4.82 4.63
0.04 0.13 0.21 0.15 0.28 0.33 0.18 0.11 0.03 0.09 0.30 0.58 0.57 0.38 0.69 1.00 0.70 0.44 0.30 0.34 0.79 1.20 1.80 1.67 1.79 1.82 3.30 3.66 4.30 3.60 3.80 4.42 3.61 3.21 3.40 3.79 4.04 3.71 3.43 3.35 3.27 3.31 3.71 4.06
0.13 0.18 0.34 0.32 0.32 0.44 0.36 0.15 0.04 0.03 0.53 0.37 0.79 0.72 0.59 1.00 1.24 1.06 0.60 0.72 1.17 1.31 1.12 0.91 0.65 0.64 1.03 1.59 2.59 3.18 3.09 2.75 3.37 3.79 3.58 3.30 3.44 3.47 3.82 4.44 3.95 3.59 3.28 3.09
0.42 0.51 0.48 0.41 0.40 0.37 0.42 0.21 0.10 0.28 0.58 1.24 1.39 1.11 0.72 1.08 1.66 1.66 1.81 1.38 0.96 1.00 0.99 0.74 0.63 0.68 1.03 1.62 1.54 1.28 1.41 1.51 1.61 1.59 2.80 2.70 2.22 2.72 3.03 3.52 3.74 3.58 3.65 3.50
0.99 0.92 0.91 0.62 0.58 0.59 0.44 0.61 0.54 0.50 0.43 0.76 1.11 1.11 0.97 0.91 1.35 1.70 1.50 1.49 1.62 2.02 1.18 1.06 1.15 1.17 1.19 1.21 0.92 0.71 0.75 0.78 0.85 1.04 1.05 1.89 1.97 1.84 2.07 3.51 4.58 4.70 4.93 6.14
1.11 1.03 0.94 0.84 0.86 0.61 0.49 0.84 0.74 0.37 0.48 1.11 1.86 1.48 0.93 0.81 0.84 1.06 1.19 1.49 1.18 0.87 0.83 1.01 1.72 0.88 0.84 0.60 0.46 0.60 0.68 0.56 0.59 0.75 1.10 1.33 1.89 2.03 2.71 3.04 3.52 4.34 4.90 6.11
1.09 0.80 0.65 0.69 0.79 0.71 0.49 0.86 1.00 0.82 0.56 0.28 0.44 0.63 0.76 0.82 0.88 0.82 0.85 1.10 1.08 0.99 0.68 0.58 0.83 0.79 0.75 0.94 0.83 0.79 0.90 1.11 1.42 1.49 1.18 1.09 1.32 1.69 1.65 1.97 2.62 2.78 2.68 3.58
1.97 1.26 0.84 0.62 0.72 0.75 0.59 0.70 1.04 0.89 0.50 0.25 0.27 0.37 0.33 0.31 0.32 0.40 0.56 0.72 0.78 0.95 1.07 0.98 1.32 1.32 1.05 1.20 1.29 1.30 1.37 1.33 1.21 1.01 1.08 1.18 1.34 1.48 2.50 2.81 3.01 2.72 2.83 3.18
2.09 2.17 1.42 1.22 1.31 1.53 1.01 0.78 0.81 1.01 0.91 0.66 0.41 0.32 0.30 0.28 0.16 0.21 0.37 0.87 1.50 1.49 1.68 1.37 1.36 1.17 1.22 1.15 1.33 1.44 1.77 1.76 1.73 1.67 1.71 1.84 2.16 2.24 2.55 2.56 2.57 3.04 3.88 4.08

GFSCGP_prec_precacc_291.txt.gz
Total_Precipitation_Accumulation
0.00 0.00 0.00 0.05 0.20 0.50 0.28 0.21 0.93 2.43 2.76 2.29 2.52 1.37 1.06 1.97 1.94 1.65 0.87 0.70 0.71 0.60 0.45 0.24 0.42 0.41 0.71 0.71 0.80 0.45 0.39 0.48 0.52 0.63 0.70 0.74 0.81 1.11 1.30 1.29 0.98 0.72 0.92 1.82
0.00 0.00 0.00 0.03 0.12 0.07 0.08 0.10 0.43 2.12 3.03 2.73 2.75 1.96 1.40 1.79 1.93 1.40 1.06 0.73 0.72 1.07 0.53 0.13 0.25 0.18 0.33 0.33 0.27 0.35 0.61 0.63 0.44 0.65 0.80 0.73 1.12 1.88 1.58 1.36 0.89 0.77 0.84 1.36
0.00 0.00 0.00 0.02 0.06 0.01 0.01 0.03 0.16 1.15 1.54 2.01 2.31 2.69 2.27 2.04 2.21 1.73 1.21 0.80 0.62 0.75 0.64 0.23 0.11 0.13 0.14 0.17 0.24 0.33 0.50 0.99 0.78 0.71 1.04 1.45 2.67 4.15 2.95 1.37 1.16 0.65 0.99 1.20
0.00 0.00 0.00 0.00 0.01 0.01 0.04 0.04 0.12 0.68 1.11 2.74 1.51 2.09 1.91 1.44 2.08 2.89 1.45 1.43 0.76 0.80 0.52 0.46 0.14 0.12 0.07 0.11 0.41 0.42 0.56 0.87 0.97 0.99 0.95 2.02 3.68 3.42 1.70 0.90 0.60 0.74 1.13 1.58
0.00 0.00 0.00 0.00 0.00 0.00 0.02 0.05 0.09 0.47 0.39 0.75 0.86 1.37 1.59 1.17 1.97 2.65 1.68 0.91 0.87 0.94 0.54 0.71 0.42 0.42 0.59 0.80 0.98 0.95 0.73 1.00 1.33 1.24 1.95 2.98 2.45 2.15 1.30 1.14 1.73 1.60 1.66 1.10
0.00 0.00 0.00 0.00 0.00 0.00 0.01 0.04 0.09 0.14 0.35 0.33 0.35 0.88 0.87 0.81 1.28 1.93 0.87 0.66 0.64 0.75 0.46 0.47 0.46 0.66 1.44 1.94 1.84 1.79 1.38 1.71 1.69 1.78 1.66 2.31 2.46 2.36 2.65 2.08 2.68 1.55 1.52 1.68
0.00 0.00 0.00 0.00 0.00 0.03 0.00 0.02 0.07 0.17 0.27 0.32 0.10 0.44 0.49 0.39 0.65 1.72 1.44 1.00 0.81 0.78 0.38 0.33 0.45 0.94 1.30 1.42 0.98 1.51 1.35 1.42 2.19 2.24 1.42 1.66 2.33 2.69 3.09 1.97 1.61 1.61 1.31 1.22
0.00 0.00 0.00 0.00 0.00 0.01 0.00 0.00 0.01 0.06 0.10 0.08 0.15 0.58 0.44 0.27 0.26 0.59 1.33 1.23 1.19 1.17 0.85 0.35 0.27 0.92 0.98 0.71 0.69 0.62 0.69 0.93 1.36 1.16 1.07 1.36 1.51 1.41 1.48 1.40 1.14 0.92 1.37 1.83
0.00 0.00 0.00 0.00 0.00 0.00 0.00 0.01 0.03 0.03 0.02 0.02 0.24 0.59 0.65 0.40 0.47 0.29 0.56 1.07 1.49 1.73 1.66 0.93 0.72 0.56 0.60 0.84 0.62 0.42 0.35 0.32 0.53 0.56 1.18 1.20 1.14 1.10 1.16 1.34 1.16 0.94 0.95 1.47
0.00 0.00 0.00 0.00 0.00 0.00 0.01 0.03 0.02 0.02 0.03 0.03 0.35 0.70 1.49 1.56 1.14 0.51 0.38 0.59 0.75 1.24 1.92 1.21 1.47 1.43 0.87 0.96 0.73 0.73 0.70 0.46 0.46 0.55 0.75 0.96 1.28 1.61 1.90 1.51 1.28 1.07 1.05 1.34
0.01 0.00 0.01 0.00 0.00 0.01 0.01 0.01 0.00 0.02 0.05 0.06 0.42 1.25 0.87 0.89 0.60 0.79 0.88 0.70 0.40 0.63 1.17 1.25 1.40 1.90 1.22 2.06 2.30 1.99 1.47 0.73 0.52 0.67 0.71 1.05 1.03 0.92 0.79 1.07 1.15 1.09 1.03 0.94
0.00 0.00 0.01 0.04 0.01 0.02 0.01 0.01 0.01 0.02 0.16 0.05 0.09 0.79 0.46 0.74 1.09 0.93 0.56 0.57 0.45 0.38 0.73 1.68 1.81 1.83 1.75 2.78 3.52 3.99 3.59 2.38 1.30 1.08 0.82 0.91 0.95 0.95 0.85 0.70 0.84 0.85 1.05 0.99
0.03 0.03 0.01 0.06 0.05 0.03 0.03 0.02 0.04 0.03 0.06 0.08 0.20 0.38 0.31 0.24 0.46 0.58 0.59 0.54 0.43 0.60 0.48 1.00 1.83 2.21 1.88 2.52 4.69 5.23 4.53 4.03 2.89 2.04 1.38 1.34 1.38 1.03 0.69 0.59 0.89 1.09 1.21 1.23
0.12 0.04 0.02 0.21 0.15 0.07 0.03 0.03 0.06 0.09 0.12 0.07 0.07 0.19 0.27 0.26 0.42 0.39 1.00 1.11 0.82 0.81 0.70 0.99 1.45 2.05 2.36 2.50 3.65 4.62 5.77 4.91 4.73 3.45 2.82 2.50 2.18 1.78 1.38 1.21 1.20 1.16 1.55 1.39
0.10 0.02 0.02 0.09 0.06 0.15 0.18 0.04 0.13 0.18 0.22 0.10 0.14 0.19 0.25 0.38 0.47 0.43 0.84 1.43 1.48 1.22 0.72 1.12 1.56 2.44 2.71 2.57 2.75 3.46 5.22 6.41 7.39 6.99 6.60 5.08 4.33 3.97 3.49 2.80 2.41 2.67 2.42 2.06
0.10 0.03 0.02 0.05 0.05 0.09 0.23 0.05 0.03 0.08 0.07 0.07 0.03 0.09 0.33 0.39 0.80 1.16 1.56 2.19 2.02 2.21 1.27 1.61 2.91 3.06 2.66 2.32 2.57 3.93 5.17 7.41 6.95 6.69 5.34 5.89 6.90 5.48 5.54 5.17 4.09 3.73 3.29 3.00
0.16 0.14 0.11 0.09 0.18 0.10 0.08 0.12 0.16 0.25 0.16 0.19 0.19 0.15 0.46 0.39 0.88 0.69 0.54 0.83 1.05 1.68 3.06 3.88 2.90 1.59 1.59 2.46 3.31 3.98 5.26 5.09 4.31 3.59 3.33 3.67 4.55 5.33 5.17 5.31 4.62 4.54 4.09 3.49
0.07 0.13 0.22 0.14 0.29 0.30 0.06 0.04 0.12 0.14 0.29 0.51 0.74 0.75 0.56 1.00 0.77 0.57 0.39 0.45 0.78 1.32 2.64 4.73 3.28 1.70 1.76 2.24 3.20 4.52 4.53 3.66 3.55 3.91 3.68 3.67 3.64 3.84 4.02 4.14 4.73 4.70 4.89 4.65
0.04 0.13 0.21 0.15 0.28 0.33 0.18 0.11 0.03 0.09 0.30 0.58 0.57 0.38 0.69 1.00 0.70 0.44 0.30 0.34 0.79 1.20 1.80 1.67 1.79 1.82 3.30 3.66 4.30 3.60 3.82 4.48 3.62 3.22 3.40 3.80 4.06 3.75 3.57 3.50 3.34 3.33 3.72 4.06
0.13 0.18 0.34 0.32 0.32 0.44 0.36 0.15 0.04 0.03 0.53 0.37 0.79 0.72 0.59 1.00 1.24 1.06 0.60 0.72 1.17 1.31 1.12 0.91 0.65 0.64 1.03 1.59 2.59 3.18 3.09 2.75 3.37 3.79 3.58 3.30 3.45 3.52 3.89 4.48 3.98 3.59 3.28 3.09
0.42 0.51 0.48 0.41 0.40 0.37 0.42 0.21 0.10 0.28 0.58 1.24 1.39 1.11 0.72 1.08 1.66 1.66 1.81 1.38 0.96 1.00 0.99 0.74 0.63 0.68 1.03 1.62 1.54 1.28 1.41 1.51 1.61 1.59 2.80 2.72 2.23 2.77 3.11 3.55 3.75 3.58 3.65 3.50
0.99 0.92 0.91 0.62 0.59 0.60 0.44 0.61 0.54 0.50 0.43 0.76 1.11 1.11 0.97 0.91 1.35 1.70 1.50 1.49 1.62 2.02 1.18 1.06 1.15 1.17 1.19 1.21 0.93 0.71 0.75 0.78 0.85 1.04 1.06 1.91 1.99 1.88 2.09 3.52 4.58 4.70 4.93 6.14
1.11 1.03 0.94 0.85 0.87 0.69 0.52 0.84 0.74 0.37 0.48 1.11 1.86 1.48 0.93 0.81 0.84 1.06 1.19 1.49 1.18 0.87 0.83 1.01 1.72 0.88 0.84 0.60 0.46 0.60 0.68 0.57 0.60 0.75 1.11 1.36 1.90 2.03 2.71 3.04 3.52 4.34 4.90 6.11
1.09 0.80 0.65 0.69 0.79 0.71 0.49 0.86 1.00 0.82 0.56 0.28 0.44 0.63 0.76 0.82 0.88 0.82 0.85 1.10 1.08 0.99 0.68 0.58 0.84 0.80 0.75 0.94 0.83 0.79 0.91 1.12 1.43 1.50 1.19 1.10 1.33 1.69 1.65 1.97 2.62 2.78 2.68 3.58
1.97 1.26 0.84 0.62 0.72 0.75 0.59 0.70 1.04 0.89 0.50 0.25 0.27 0.37 0.33 0.31 0.32 0.40 0.56 0.72 0.78 0.96 1.08 1.02 1.33 1.35 1.08 1.21 1.29 1.30 1.38 1.33 1.21 1.02 1.08 1.18 1.34 1.48 2.50 2.81 3.01 2.72 2.83 3.18
2.09 2.17 1.42 1.22 1.32 1.54 1.03 0.78 0.81 1.01 0.91 0.66 0.41 0.33 0.30 0.28 0.16 0.21 0.37 0.87 1.50 1.50 1.68 1.37 1.39 1.21 1.26 1.19 1.36 1.46 1.77 1.76 1.73 1.67 1.71 1.84 2.16 2.24 2.55 2.56 2.57 3.04 3.88 4.08